GW1943 Weather Reports


time (UTC)temp
F
wind
direction
speed
knots
gust
knots
rain 1hr
in
rain 24hr
in
rain mn
in
humidity
%
barometer
mb
20260906044531 58 219 0.0 0.0 0.00 0.00 0.00 84 1018.1
20260906044026 59 219 0.0 0.0 0.00 0.00 0.00 84 1018.3
20260906043522 59 219 0.0 0.0 0.00 0.00 0.00 83 1018.2
20260906043018 59 219 0.0 0.0 0.00 0.00 0.00 82 1018.2
20260906042517 59 219 0.0 0.0 0.00 0.00 0.00 82 1018.2
20260906042011 60 219 0.0 0.0 0.00 0.00 0.00 81 1017.9
20260906041508 60 219 0.0 0.0 0.00 0.00 0.00 80 1018.2
20260906041007 60 219 0.0 0.0 0.00 0.00 0.00 80 1018.2
20260906040502 60 219 0.0 0.0 0.00 0.00 0.00 79 1018.4
20260906035957 60 219 0.0 0.0 0.00 0.00 0.00 79 1018.4
20260906035453 61 220 0.0 0.0 0.00 0.00 0.00 79 1018.3
20260906034948 61 220 0.0 0.0 0.00 0.00 0.00 79 1018.3
20260906034443 61 220 0.0 0.0 0.00 0.00 0.00 79 1018.4
20260906033939 61 220 0.0 0.0 0.00 0.00 0.00 79 1018.4
20260906033438 61 220 0.0 0.0 0.00 0.00 0.00 78 1018.1
20260906032935 62 220 0.0 0.0 0.00 0.00 0.00 77 1018.2
20260906032431 62 220 0.0 0.0 0.00 0.00 0.00 76 1018.2
20260906031924 62 220 0.0 0.0 0.00 0.00 0.00 75 1018.3
20260906031420 63 220 0.0 0.0 0.00 0.00 0.00 76 1018.0
20260906030915 63 220 0.0 0.0 0.00 0.00 0.00 75 1018.1
20260906030410 64 220 0.0 0.0 0.00 0.00 0.00 73 1017.9
20260906025904 64 220 0.0 0.0 0.00 0.00 0.00 72 1017.8
20260906025359 64 220 0.0 0.0 0.00 0.00 0.00 72 1017.9
20260906024857 64 220 0.0 0.0 0.00 0.00 0.00 71 1018.1
20260906024357 64 220 0.0 0.0 0.00 0.00 0.00 70 1018.1
20260906023852 64 220 0.0 0.0 0.00 0.00 0.00 69 1017.8
20260906023348 65 220 0.0 0.0 0.00 0.00 0.00 68 1018.0
20260906022843 65 220 0.0 0.0 0.00 0.00 0.00 68 1017.9
20260906022338 66 220 0.0 0.0 0.00 0.00 0.00 66 1017.8
20260906021834 66 220 0.0 0.0 0.00 0.00 0.00 65 1018.0
20260906021333 66 220 0.0 0.0 0.00 0.00 0.00 64 1017.9
20260906020828 67 221 0.0 0.0 0.00 0.00 0.00 64 1018.0
20260906020327 68 221 0.0 0.0 0.00 0.00 0.00 63 1017.9
20260906015822 68 221 0.0 0.0 0.00 0.00 0.00 61 1017.9
20260906015320 69 223 0.0 0.0 0.00 0.00 0.00 59 1017.9
20260906014815 69 223 0.0 0.0 0.00 0.00 0.00 59 1017.9
20260906014310 70 229 0.0 0.0 0.00 0.00 0.00 57 1017.8
20260906013806 71 223 0.0 0.9 0.00 0.00 0.00 57 1017.8
20260906013301 72 216 0.0 0.0 0.00 0.00 0.00 55 1017.8
20260906012757 72 225 0.0 0.0 0.00 0.00 0.00 53 1017.4
20260906012251 73 223 0.0 0.9 0.00 0.00 0.00 55 1017.7
20260906011747 73 94 0.9 1.7 0.00 0.00 0.00 52 1017.6
20260906011246 73 220 0.9 0.9 0.00 0.00 0.00 52 1017.7
20260906010742 73 227 0.0 0.9 0.00 0.00 0.00 53 1017.6
20260906010238 73 224 0.0 0.9 0.00 0.00 0.00 51 1017.7
20260906005733 73 45 0.0 0.9 0.00 0.00 0.00 51 1017.7
20260906005232 73 231 0.0 0.9 0.00 0.00 0.00 52 1017.8
20260906004731 72 291 1.7 1.7 0.00 0.00 0.00 54 1017.8
20260906004221 71 224 0.0 1.7 0.00 0.00 0.00 57 1017.7
20260906003716 72 226 0.0 1.7 0.00 0.00 0.00 55 1017.8
20260906003212 71 236 0.0 0.0 0.00 0.00 0.00 58 1017.7
20260906002712 71 232 0.9 1.7 0.00 0.00 0.00 56 1017.6
20260906002207 71 241 0.0 0.0 0.00 0.00 0.00 55 1017.6
20260906001702 71 228 0.0 0.9 0.00 0.00 0.00 55 1017.7
20260906001201 70 224 0.0 0.9 0.00 0.00 0.00 55 1017.5
20260906000657 72 238 0.0 2.6 0.00 0.00 0.00 54 1017.4
20260906000152 73 263 1.7 2.6 0.00 0.00 0.00 51 1017.5
20260905235651 74 232 1.7 2.6 0.00 0.00 0.00 51 1017.6
20260905235146 74 240 0.9 2.6 0.00 0.00 0.00 55 1017.6
20260905234641 74 239 0.9 2.6 0.00 0.00 0.00 53 1017.5
20260905234137 75 221 0.0 0.9 0.00 0.00 0.00 47 1017.7
20260905233632 74 235 0.0 0.0 0.00 0.00 0.00 52 1017.7
20260905233126 74 234 0.9 0.9 0.00 0.00 0.00 51 1017.6
20260905232622 75 228 0.0 0.9 0.00 0.00 0.00 52 1017.7
20260905232117 74 224 0.9 1.7 0.00 0.00 0.00 49 1017.8
20260905231617 76 252 0.9 1.7 0.00 0.00 0.00 50 1017.8
20260905231114 77 234 0.0 0.9 0.00 0.00 0.00 49 1017.8
20260905230609 76 248 0.0 0.9 0.00 0.00 0.00 50 1017.9
20260905230106 76 228 0.0 0.9 0.00 0.00 0.00 53 1018.0
20260905225601 74 203 0.0 0.9 0.00 0.00 0.00 55 1017.9
20260905225056 74 225 0.0 0.9 0.00 0.00 0.00 55 1018.2
20260905224555 73 220 0.0 0.9 0.00 0.00 0.00 54 1018.0
20260905224055 73 227 0.0 1.7 0.00 0.00 0.00 56 1018.0
20260905223553 73 231 0.9 1.7 0.00 0.00 0.00 56 1018.2
20260905223049 73 230 0.0 0.0 0.00 0.00 0.00 56 1018.0
20260905222548 71 253 1.7 1.7 0.00 0.00 0.00 58 1018.3
20260905222044 70 233 0.0 0.9 0.00 0.00 0.00 61 1018.3
20260905221540 70 225 0.9 1.7 0.00 0.00 0.00 62 1018.3
20260905221036 68 225 0.0 1.7 0.00 0.00 0.00 66 1018.2
20260905220531 67 232 0.9 2.6 0.00 0.00 0.00 64 1018.5
20260905220028 67 236 0.9 2.6 0.00 0.00 0.00 65 1018.6
20260905215526 66 235 0.0 2.6 0.00 0.00 0.00 67 1018.5
20260905215023 66 227 0.0 1.7 0.00 0.00 0.00 68 1018.6
20260905214519 66 236 0.9 1.7 0.00 0.00 0.00 65 1018.7
20260905214014 66 231 0.0 1.7 0.00 0.00 0.00 67 1018.9
20260905213509 66 229 0.0 1.7 0.00 0.00 0.00 66 1018.6
20260905213004 66 244 0.9 1.7 0.00 0.00 0.00 66 1018.7
20260905212459 66 229 0.9 1.7 0.00 0.00 0.00 65 1018.7
20260905211958 66 229 0.0 0.0 0.00 0.00 0.00 66 1018.6
20260905211454 66 229 0.0 0.0 0.00 0.00 0.00 68 1018.7
20260905210950 66 232 0.0 0.0 0.00 0.00 0.00 70 1018.8
20260905210445 66 232 0.0 0.9 0.00 0.00 0.00 68 1018.6
20260905205944 65 232 0.0 1.7 0.00 0.00 0.00 69 1018.6
20260905205439 65 225 0.0 1.7 0.00 0.00 0.00 69 1018.7
20260905204938 65 225 0.0 0.9 0.00 0.00 0.00 70 1018.7
20260905204434 65 226 0.0 0.0 0.00 0.00 0.00 71 1018.9
20260905203933 65 228 0.0 0.0 0.00 0.00 0.00 71 1018.9
20260905203429 64 228 0.0 0.0 0.00 0.00 0.00 70 1019.0
20260905202924 64 226 0.0 0.0 0.00 0.00 0.00 71 1018.9
20260905202419 64 226 0.0 0.9 0.00 0.00 0.00 71 1019.0
20260905201915 64 226 0.0 0.0 0.00 0.00 0.00 73 1019.0
20260905201410 64 226 0.0 2.6 0.00 0.00 0.00 73 1019.1
20260905200910 64 229 0.0 2.6 0.00 0.00 0.00 73 1018.9
20260905200406 64 228 0.0 0.0 0.00 0.00 0.00 74 1019.0
20260905195903 63 225 0.0 0.9 0.00 0.00 0.00 74 1019.0
20260905195359 63 249 1.7 1.7 0.00 0.00 0.00 72 1019.0
20260905194854 64 245 1.7 2.6 0.00 0.00 0.00 72 1019.3
20260905194353 65 268 3.5 4.3 0.00 0.00 0.00 71 1018.9
20260905193848 65 231 0.9 4.3 0.00 0.00 0.00 71 1018.8
20260905193342 65 224 0.9 1.7 0.00 0.00 0.00 73 1019.1
20260905192838 64 224 0.9 0.9 0.00 0.00 0.00 73 1019.1
20260905192334 64 235 1.7 2.6 0.00 0.00 0.00 73 1019.4
20260905191833 64 228 0.9 1.7 0.00 0.00 0.00 74 1019.2
20260905191332 64 221 2.6 2.6 0.00 0.00 0.00 74 1019.1
20260905190830 64 244 2.6 4.3 0.00 0.00 0.00 74 1019.1
20260905190325 63 216 1.7 2.6 0.00 0.00 0.00 74 1019.2
20260905185824 63 247 1.7 2.6 0.00 0.00 0.00 76 1019.4
20260905185319 63 250 1.7 2.6 0.00 0.00 0.00 75 1019.2
20260905184818 63 274 2.6 2.6 0.00 0.00 0.00 75 1019.4
20260905184317 63 242 1.7 2.6 0.00 0.00 0.00 74 1019.3
20260905183816 63 214 0.0 1.7 0.00 0.00 0.00 75 1019.4
20260905183312 64 228 0.9 2.6 0.00 0.00 0.00 74 1019.5
20260905182806 64 206 0.0 2.6 0.00 0.00 0.00 75 1019.5
20260905182306 64 205 0.9 1.7 0.00 0.00 0.00 73 1019.5
20260905181801 63 204 0.9 1.7 0.00 0.00 0.00 74 1019.4
20260905181301 62 204 0.9 1.7 0.00 0.00 0.00 78 1019.5
20260905180754 62 204 0.9 0.9 0.00 0.00 0.00 77 1019.7
20260905180250 62 204 0.0 0.9 0.00 0.00 0.00 76 1019.5
20260905175744 62 204 0.0 0.9 0.00 0.00 0.00 78 1019.8
20260905175239 61 204 0.0 1.7 0.00 0.00 0.00 77 1019.4
20260905174734 61 204 0.0 0.0 0.00 0.00 0.00 80 1019.5
20260905174230 60 204 0.0 0.0 0.00 0.00 0.00 82 1019.5
20260905173726 60 204 0.0 0.0 0.00 0.00 0.00 83 1019.7
20260905173221 59 204 0.0 1.7 0.00 0.00 0.00 82 1019.5
20260905172720 59 204 0.0 0.0 0.00 0.00 0.00 83 1019.3
20260905172215 59 204 0.0 0.0 0.00 0.00 0.00 84 1019.4
20260905171711 59 204 0.0 0.9 0.00 0.00 0.00 83 1019.3
20260905171206 59 204 0.9 2.6 0.00 0.00 0.00 84 1019.2
20260905170703 59 204 0.0 0.0 0.00 0.00 0.00 85 1019.2
20260905170158 59 204 0.0 0.0 0.00 0.00 0.00 84 1019.2
20260905165658 59 204 0.0 0.0 0.00 0.00 0.00 84 1019.2
20260905165153 59 204 0.0 0.9 0.00 0.00 0.00 84 1019.1
20260905164648 59 204 0.0 0.0 0.00 0.00 0.00 86 1019.0
20260905164147 59 204 0.0 0.0 0.00 0.00 0.00 86 1019.2
20260905163643 58 204 0.0 0.0 0.00 0.00 0.00 87 1019.1
20260905163140 58 204 0.0 0.9 0.00 0.00 0.00 87 1019.4
20260905162636 57 204 0.0 0.0 0.00 0.00 0.00 88 1019.0
20260905162134 57 204 0.0 0.0 0.00 0.00 0.00 89 1019.2
20260905161629 57 204 0.0 0.0 0.00 0.00 0.00 89 1019.4
20260905161127 57 204 0.0 0.9 0.00 0.00 0.00 89 1019.2
20260905160627 57 204 0.0 0.0 0.00 0.00 0.00 90 1019.3
20260905160121 57 204 0.0 0.9 0.00 0.00 0.00 90 1019.0
20260905155621 56 203 0.0 0.0 0.00 0.00 0.00 89 1019.2
20260905155119 56 202 0.0 0.9 0.00 0.00 0.00 90 1019.3
20260905154614 55 201 0.0 0.0 0.00 0.00 0.00 91 1019.3
20260905154110 55 201 0.0 0.0 0.00 0.00 0.00 92 1019.2
20260905153606 54 201 0.0 0.9 0.00 0.00 0.00 93 1019.1
20260905153100 54 201 0.0 0.0 0.00 0.00 0.00 95 1019.3
20260905152555 53 201 0.0 0.9 0.00 0.00 0.00 95 1019.3
20260905152050 53 200 0.0 0.0 0.00 0.00 0.00 97 1019.1
20260905151545 53 200 0.0 0.0 0.00 0.00 0.00 98 1019.2
20260905151040 53 200 0.0 0.0 0.00 0.00 0.00 99 1019.0
20260905150536 53 200 0.0 0.0 0.00 0.00 0.00 99 1018.9
20260905150033 53 200 0.0 0.0 0.00 0.00 0.00 99 1018.9
20260905145527 53 200 0.0 0.0 0.00 0.00 0.00 99 1018.9
20260905145027 52 200 0.0 0.0 0.00 0.00 0.00 99 1018.9
20260905144522 52 200 0.0 0.0 0.00 0.00 0.00 99 1018.9
20260905144021 52 200 0.0 0.0 0.00 0.00 0.00 99 1018.8
20260905143520 52 200 0.0 0.0 0.00 0.00 0.00 99 1018.6
20260905143015 52 200 0.0 0.0 0.00 0.00 0.00 99 1018.9
20260905142514 52 200 0.0 0.0 0.00 0.00 0.00 99 1018.7
20260905142010 51 200 0.0 0.0 0.00 0.00 0.00 99 1018.5
20260905141509 51 200 0.0 0.0 0.00 0.00 0.00 99 1018.6
20260905141006 51 200 0.0 0.0 0.00 0.00 0.00 99 1018.6
20260905140501 51 200 0.0 0.0 0.00 0.00 0.00 99 1018.5
20260905135959 51 200 0.0 0.0 0.00 0.00 0.00 99 1018.3
20260905135455 51 200 0.0 0.0 0.00 0.00 0.00 99 1018.6
20260905134950 51 200 0.0 0.0 0.00 0.00 0.00 99 1018.4
20260905134449 51 200 0.0 0.0 0.00 0.00 0.00 99 1018.6
20260905133949 51 200 0.0 0.0 0.00 0.00 0.00 99 1018.6
20260905133444 51 200 0.0 0.0 0.00 0.00 0.00 99 1018.5
20260905132944 51 200 0.0 0.0 0.00 0.00 0.00 99 1018.5
20260905132439 51 200 0.0 0.0 0.00 0.00 0.00 99 1018.6
20260905131933 51 200 0.0 0.0 0.00 0.00 0.00 99 1018.8
20260905131430 51 200 0.0 0.0 0.00 0.00 0.00 99 1018.6
20260905130930 51 200 0.0 0.0 0.00 0.00 0.00 99 1018.7
20260905130424 51 200 0.0 0.0 0.00 0.00 0.00 99 1018.6
20260905125924 51 200 0.0 0.0 0.00 0.00 0.00 99 1018.6
20260905125419 51 200 0.0 0.0 0.00 0.00 0.00 99 1018.5
20260905124914 50 200 0.0 0.0 0.00 0.00 0.00 99 1018.4
20260905124411 51 200 0.0 0.0 0.00 0.00 0.00 99 1018.5
20260905123910 51 200 0.0 0.0 0.00 0.00 0.00 99 1018.5
20260905123407 51 200 0.0 0.0 0.00 0.00 0.00 99 1018.3
20260905122902 51 200 0.0 0.0 0.00 0.00 0.00 99 1018.5
20260905122401 51 200 0.0 0.0 0.00 0.00 0.00 99 1018.3
20260905121857 51 200 0.0 0.0 0.00 0.00 0.00 99 1018.2
20260905121353 51 200 0.0 0.0 0.00 0.00 0.00 99 1018.3
20260905120852 51 200 0.0 0.0 0.00 0.00 0.00 99 1018.3
20260905120346 51 200 0.0 0.0 0.00 0.00 0.00 99 1018.3
20260905115842 51 200 0.0 0.0 0.00 0.00 0.00 99 1018.4
20260905115340 50 200 0.0 0.0 0.00 0.00 0.00 99 1018.3
20260905114835 50 200 0.0 0.0 0.00 0.00 0.00 99 1018.3
20260905114334 51 200 0.0 0.0 0.00 0.00 0.00 99 1018.0
20260905113828 50 200 0.0 0.0 0.00 0.00 0.00 99 1018.4
20260905113324 51 200 0.0 0.0 0.00 0.00 0.00 99 1018.0
20260905112819 51 200 0.0 0.0 0.00 0.00 0.00 99 1018.0
20260905112314 51 200 0.0 0.0 0.00 0.00 0.00 99 1018.2
20260905111809 51 200 0.0 0.0 0.00 0.00 0.00 99 1018.1
20260905111303 51 200 0.0 0.0 0.00 0.00 0.00 99 1018.3
20260905110803 51 200 0.0 0.0 0.00 0.00 0.00 99 1018.2
20260905110256 51 200 0.0 0.0 0.00 0.00 0.00 99 1018.3
20260905105752 51 200 0.0 0.0 0.00 0.00 0.00 99 1018.2
20260905105251 51 200 0.0 0.0 0.00 0.00 0.00 99 1018.0
20260905104746 51 200 0.0 0.0 0.00 0.00 0.00 99 1018.0
20260905104242 51 200 0.0 0.0 0.00 0.00 0.00 99 1018.1
20260905103741 51 200 0.0 0.0 0.00 0.00 0.00 99 1018.1
20260905103237 51 200 0.0 0.0 0.00 0.00 0.00 99 1018.1
20260905102733 51 200 0.0 0.0 0.00 0.00 0.00 99 1018.0
20260905102230 51 200 0.0 0.0 0.00 0.00 0.00 99 1017.8
20260905101728 51 200 0.0 0.0 0.00 0.00 0.00 99 1018.1
20260905101227 52 200 0.0 0.0 0.00 0.00 0.00 99 1018.1
20260905100723 52 200 0.0 0.0 0.00 0.00 0.00 99 1018.1
20260905100218 51 200 0.0 0.0 0.00 0.00 0.00 99 1018.0
20260905095718 51 200 0.0 0.0 0.00 0.00 0.00 99 1017.8
20260905095212 52 200 0.0 0.0 0.00 0.00 0.00 99 1017.9
20260905094707 52 200 0.0 0.0 0.00 0.00 0.00 99 1018.1
20260905094207 52 200 0.0 0.0 0.00 0.00 0.00 99 1018.1
20260905093701 52 200 0.0 0.0 0.00 0.00 0.00 99 1017.8
20260905093157 52 200 0.0 0.0 0.00 0.00 0.00 99 1017.8
20260905092653 52 200 0.0 0.0 0.00 0.00 0.00 99 1018.1
20260905092148 52 200 0.0 0.0 0.00 0.00 0.00 99 1017.9
20260905091647 52 200 0.0 0.0 0.00 0.00 0.00 99 1017.8
20260905091142 52 200 0.0 0.0 0.00 0.00 0.00 98 1017.8
20260905090636 52 200 0.0 0.0 0.00 0.00 0.00 98 1017.8
20260905090132 52 200 0.0 0.0 0.00 0.00 0.00 98 1017.9
20260905085630 52 200 0.0 0.0 0.00 0.00 0.00 98 1017.8
20260905085126 52 200 0.0 0.0 0.00 0.00 0.00 98 1017.9
20260905084625 52 200 0.0 0.0 0.00 0.00 0.00 98 1017.6
20260905084115 52 200 0.0 0.0 0.00 0.00 0.00 97 1018.0
20260905083615 52 200 0.0 0.0 0.00 0.00 0.00 97 1017.9
20260905083112 52 200 0.0 0.0 0.00 0.00 0.00 97 1017.8
20260905082606 53 200 0.0 0.0 0.00 0.00 0.00 97 1017.7
20260905082057 53 200 0.0 0.0 0.00 0.00 0.00 97 1017.7
20260905081556 53 200 0.0 0.0 0.00 0.00 0.00 97 1017.8
20260905081051 53 200 0.0 0.0 0.00 0.00 0.00 96 1017.7
20260905080550 53 200 0.0 0.0 0.00 0.00 0.00 97 1017.6
20260905080045 53 200 0.0 0.0 0.00 0.00 0.00 96 1017.7
20260905075539 53 200 0.0 0.0 0.00 0.00 0.00 96 1017.8
20260905075038 53 200 0.0 0.0 0.00 0.00 0.00 96 1017.8
20260905074532 53 200 0.0 0.0 0.00 0.00 0.00 96 1017.7
20260905074029 53 200 0.0 0.0 0.00 0.00 0.00 95 1017.6
20260905073524 53 200 0.0 0.0 0.00 0.00 0.00 95 1017.6
20260905073020 53 200 0.0 0.0 0.00 0.00 0.00 95 1017.6
20260905072519 53 200 0.0 0.0 0.00 0.00 0.00 95 1017.9
20260905072015 54 200 0.0 0.0 0.00 0.00 0.00 95 1017.8
20260905071511 54 200 0.0 0.0 0.00 0.00 0.00 95 1017.8
20260905071011 54 201 0.0 0.0 0.00 0.00 0.00 96 1017.6
20260905070506 54 201 0.0 0.0 0.00 0.00 0.00 96 1017.5
20260905070001 54 201 0.0 0.0 0.00 0.00 0.00 95 1017.6
20260905065459 54 201 0.0 0.0 0.00 0.00 0.00 95 1017.4
20260905064955 54 201 0.0 0.0 0.00 0.00 0.00 95 1017.5
20260905064449 54 201 0.0 0.0 0.00 0.00 0.00 95 1017.7
20260905063944 54 201 0.0 0.0 0.00 0.00 0.00 95 1017.4
20260905063439 54 201 0.0 0.0 0.00 0.00 0.00 95 1017.5
20260905062935 54 201 0.0 0.0 0.00 0.00 0.00 94 1017.7
20260905062429 55 201 0.0 0.0 0.00 0.00 0.00 94 1017.2
20260905061924 55 201 0.0 0.0 0.00 0.00 0.00 94 1017.2
20260905061419 55 201 0.0 0.0 0.00 0.00 0.00 93 1017.1
20260905060918 55 201 0.0 0.0 0.00 0.00 0.00 93 1017.1
20260905060415 56 201 0.0 0.0 0.00 0.00 0.00 93 1017.0
20260905055914 56 201 0.0 0.0 0.00 0.00 0.00 92 1017.1
20260905055409 56 201 0.0 0.0 0.00 0.00 0.00 92 1017.1
20260905054908 56 201 0.0 0.0 0.00 0.00 0.00 92 1017.1
20260905054405 56 201 0.0 0.0 0.00 0.00 0.00 91 1016.9
20260905053904 56 201 0.0 0.0 0.00 0.00 0.00 91 1017.1
20260905053359 57 201 0.0 0.0 0.00 0.00 0.00 91 1017.0
20260905052855 57 201 0.0 0.0 0.00 0.00 0.00 90 1016.9
20260905052354 57 201 0.0 0.0 0.00 0.00 0.00 89 1016.8
20260905051854 57 201 0.0 0.0 0.00 0.00 0.00 89 1017.0
20260905051350 57 201 0.0 0.0 0.00 0.00 0.00 89 1017.1
20260905050847 57 201 0.0 0.0 0.00 0.00 0.00 88 1017.3
20260905050343 57 201 0.0 0.0 0.00 0.00 0.00 88 1017.1
20260905045842 57 201 0.0 0.0 0.00 0.00 0.00 87 1017.0
20260905045338 57 201 0.0 0.0 0.00 0.00 0.00 86 1017.1
20260905044833 57 201 0.0 0.0 0.00 0.00 0.00 85 1017.1